Simultaneous Nadir Overpasses (SNOs) Predictions

Prediction of SNOs between AURA and NPP Satellite Orbit:

Table of predicted SNOs for the next 14.0 days since TLE Epoch: 10/31/2014
Index Date (AURA) Time (AURA) Lat,Lon (AURA) SZA (AURA ) Date (NPP) Time (NPP) Lat,Lon (NPP) SZA (NPP ) Distance(km) Time Diff (sec)
1 11/03/2014 05:40:28 -75.81, 155.54 69.34 11/03/2014 05:39:26 -75.82, 155.60 69.29 1.82 62
2 11/03/2014 06:29:37 76.63, -34.18 109.82 11/03/2014 06:29:52 76.63, -34.21 109.81 0.79 15
3 11/05/2014 21:57:11 -75.74, -88.84 68.46 11/05/2014 21:56:23 -75.73, -88.91 68.40 1.95 48
4 11/05/2014 22:46:11 76.99, 82.92 110.24 11/05/2014 22:46:39 76.99, 82.98 110.20 1.60 28
5 11/08/2014 14:13:51 -76.14, 28.18 68.10 11/08/2014 14:13:09 -76.15, 28.25 68.08 2.02 42
6 11/08/2014 15:03:00 76.95,-161.43 111.06 11/08/2014 15:03:35 76.95,-161.44 111.03 0.09 35
7 11/11/2014 06:30:45 -76.18, 144.08 67.39 11/11/2014 06:30:03 -76.19, 144.16 67.37 2.10 42
8 11/11/2014 07:19:54 76.98, -45.53 111.78 11/11/2014 07:20:29 76.99, -45.52 111.74 0.23 35
9 11/13/2014 22:47:53 -75.82,-101.30 66.30 11/13/2014 22:47:05 -75.81,-101.36 66.24 1.69 48




NCC Satellite Simultaneous Nadir Overpasses (SNOs) Prediction Service
